Kalamazoo, MI

10:59 AM EDT on May 29, 2017 (GMT -0400)
Kalamazoo-Battle Creek International

Weather History for KAZO - February, 2013

Change the Weather History Date:

Saturday, February 16, 2013

  Actual Average Record
Temperature  
Mean Temperature 18 °F 27 °F  
Max Temperature 22 °F 34 °F 63 °F (1954)
Min Temperature 13 °F 20 °F -5 °F (1958)
Degree Days  
Heating Degree Days 47 38  
Month to date heating degree days 652 629  
Since 1 July heating degree days 4103 4337  
Cooling Degree Days 0 0  
Month to date cooling degree days 0 0  
Year to date cooling degree days 0 0  
Moisture  
Dew Point 14 °F    
Average Humidity 80    
Maximum Humidity 92    
Minimum Humidity 67    
Precipitation  
Precipitation 0.02 in 0.06 in 0.79 in (1954)
Month to date precipitation 0.39 0.76  
Year to date precipitation 3.79 2.55  
Sea Level Pressure  
Sea Level Pressure 30.08 in    
Wind  
Wind Speed 8 mph (WNW)    
Max Wind Speed 20 mph    
Max Gust Speed 24 mph    
Visibility 4 miles    
Events Fog , Snow    
T = Trace of Precipitation, MM = Missing Value Source: NWS Daily Summary

Daily Weather History Graph

Daily Weather History Graph

Search for Another Location

Airport or City:

Trip Planner

Search our weather history database for the weather conditions in past years. The results will help you decide how hot, cold, wet, or windy it might be!

Date:

Astronomy

Feb. 16, 2013 Rise Set
Actual Time 7:36 AM EST 6:16 PM EST
Civil Twilight 7:08 AM EST 6:45 PM EST
Nautical Twilight 6:35 AM EST 7:17 PM EST
Astronomical Twilight 6:02 AM EST 7:50 PM EST
Moon 10:41 AM EST (2/16) 12:23 AM EST (2/16)
Length of Visible Light 11h 37m
Length of Day
10h 39m
Waxing Crescent, 39% of the Moon is Illuminated
Feb 16
Waxing Crescent
Feb 17
First Quarter
Feb 25
Full
Mar 4
Last Quarter
Mar 11
New

Hourly Weather History & Observations

Time (EST) Temp. Windchill Dew Point Humidity Pressure Visibility Wind Dir Wind Speed Gust Speed Precip Events Conditions
12:30 AM 21.2 °F - 19.4 °F 93% 30.10 in 2.5 mi Calm Calm - 0.00 in Snow Light Snow
12:42 AM 21.2 °F - 19.4 °F 93% 30.10 in 1.8 mi Calm Calm - 0.00 in Snow Light Snow
12:53 AM 21.9 °F 17.2 °F 19.9 °F 92% 30.13 in 1.8 mi SW 3.5 mph - 0.00 in Snow Light Snow
1:03 AM 21.2 °F 16.4 °F 19.4 °F 93% 30.09 in 2.5 mi SW 3.5 mph - 0.00 in Snow Light Snow
1:07 AM 21.2 °F 16.4 °F 19.4 °F 93% 30.09 in 3.0 mi SSW 3.5 mph - 0.00 in Snow Light Snow
1:41 AM 21.2 °F 16.4 °F 19.4 °F 93% 30.08 in 2.0 mi SSW 3.5 mph - 0.00 in Snow Light Snow
1:53 AM 21.9 °F 17.2 °F 19.0 °F 89% 30.12 in 2.0 mi SW 3.5 mph - 0.00 in Snow Light Snow
2:10 AM 21.2 °F 16.4 °F 19.4 °F 93% 30.07 in 2.0 mi SSW 3.5 mph - 0.00 in Snow Light Snow
2:19 AM 21.2 °F 14.9 °F 19.4 °F 93% 30.07 in 1.8 mi SW 4.6 mph - 0.00 in Snow Light Snow
2:43 AM 21.2 °F - 19.4 °F 93% 30.07 in 2.0 mi Calm Calm - 0.00 in Snow Light Snow
2:50 AM 21.2 °F - 19.4 °F 93% 30.06 in 1.2 mi Calm Calm - 0.00 in Snow Light Snow
2:53 AM 21.0 °F - 19.0 °F 92% 30.11 in 1.0 mi Calm Calm - 0.00 in Snow Light Snow
3:04 AM 21.2 °F - 17.6 °F 86% 30.06 in 3.0 mi Calm Calm - 0.00 in Snow Light Snow
3:15 AM 21.2 °F - 17.6 °F 86% 30.06 in 2.5 mi Calm Calm - 0.00 in Snow Light Snow
3:22 AM 21.2 °F - 19.4 °F 93% 30.06 in 2.5 mi Calm Calm - 0.00 in Snow Light Snow
3:34 AM 21.2 °F - 19.4 °F 93% 30.05 in 1.2 mi Calm Calm - 0.00 in Snow Light Snow
3:53 AM 21.9 °F - 19.0 °F 89% 30.09 in 1.5 mi Calm Calm - 0.00 in Snow Light Snow
4:53 AM 21.9 °F - 19.0 °F 89% 30.08 in 1.0 mi Calm Calm - 0.00 in Snow Light Snow
5:16 AM 21.2 °F 16.4 °F 19.4 °F 93% 30.04 in 0.8 mi NW 3.5 mph - 0.01 in Snow Light Snow
5:23 AM 21.2 °F 14.9 °F 19.4 °F 93% 30.04 in 1.2 mi WNW 4.6 mph - 0.01 in Snow Light Snow
5:26 AM 21.2 °F 14.9 °F 19.4 °F 93% 30.04 in 3.0 mi WNW 4.6 mph - 0.01 in Snow Light Snow
5:38 AM 21.2 °F 12.6 °F 17.6 °F 86% 30.04 in 5.0 mi NW 6.9 mph - 0.01 in Snow Light Snow
5:53 AM 21.0 °F 13.4 °F 17.1 °F 85% 30.08 in 8.0 mi NW 5.8 mph - 0.01 in   Overcast
6:53 AM 21.0 °F 16.2 °F 16.0 °F 81% 30.07 in 9.0 mi WNW 3.5 mph - 0.00 in   Overcast
7:53 AM 17.1 °F - 15.1 °F 92% 30.08 in 9.0 mi Calm Calm - N/A   Partly Cloudy
8:12 AM 17.6 °F 12.3 °F 15.8 °F 93% 30.04 in 2.0 mi West 3.5 mph - 0.00 in Snow Light Snow
8:26 AM 19.4 °F 12.8 °F 15.8 °F 86% 30.04 in 1.0 mi WNW 4.6 mph - 0.00 in Snow Light Snow
8:32 AM 19.4 °F 10.4 °F 15.8 °F 86% 30.04 in 0.2 mi WNW 6.9 mph - 0.00 in Fog , Snow Snow
8:51 AM 19.4 °F 6.0 °F 15.8 °F 86% 30.05 in 0.5 mi North 13.8 mph - 0.01 in Fog , Snow Light Snow
8:53 AM 19.0 °F 5.6 °F 15.1 °F 85% 30.09 in 0.5 mi North 13.8 mph - 0.01 in Fog , Snow Light Snow
9:45 AM 17.6 °F 4.3 °F 12.2 °F 79% 30.05 in 10.0 mi North 12.7 mph - 0.00 in   Mostly Cloudy
9:53 AM 19.0 °F 8.2 °F 12.9 °F 77% 30.09 in 10.0 mi North 9.2 mph - 0.00 in   Mostly Cloudy
10:24 AM 19.4 °F 8.6 °F 14.0 °F 80% 30.05 in 1.8 mi North 9.2 mph - 0.00 in Snow Light Snow
10:53 AM 19.9 °F 8.6 °F 14.0 °F 78% 30.09 in 1.2 mi NNW 10.4 mph - 0.00 in Snow Light Snow
11:08 AM 19.4 °F 6.6 °F 15.8 °F 86% 30.05 in 0.5 mi WNW 12.7 mph - 0.00 in Fog , Snow Snow
11:15 AM 17.6 °F 3.2 °F 14.0 °F 86% 30.05 in 0.2 mi NW 15.0 mph - 0.00 in Fog , Snow Heavy Snow
11:27 AM 19.4 °F 6.0 °F 14.0 °F 80% 30.05 in 1.0 mi NW 13.8 mph - 0.00 in Snow Light Snow
11:38 AM 19.4 °F 6.6 °F 12.2 °F 74% 30.05 in 10.0 mi NW 12.7 mph - 0.00 in Snow Light Snow
11:53 AM 19.0 °F 6.1 °F 10.9 °F 71% 30.10 in 7.0 mi WNW 12.7 mph - 0.00 in Snow Light Snow
12:53 PM 19.0 °F 7.5 °F 10.0 °F 68% 30.09 in 10.0 mi NW 10.4 mph - 0.00 in   Overcast
1:20 PM 19.4 °F 10.4 °F 12.2 °F 74% 30.04 in 1.2 mi NW 6.9 mph 16.1 mph 0.00 in Snow Light Snow
1:53 PM 19.9 °F 6.2 °F 10.9 °F 68% 30.08 in 2.5 mi West 15.0 mph 20.7 mph 0.00 in Snow Light Snow
2:02 PM 19.4 °F 5.0 °F 12.2 °F 74% 30.03 in 0.8 mi WNW 16.1 mph 24.2 mph 0.00 in Snow Light Snow
2:08 PM 19.4 °F 6.0 °F 10.4 °F 68% 30.03 in 2.5 mi WNW 13.8 mph - 0.00 in Snow Light Snow
2:13 PM 19.4 °F 5.5 °F 8.6 °F 63% 30.03 in 9.0 mi WNW 15.0 mph 19.6 mph 0.00 in   Overcast
2:53 PM 19.0 °F 4.0 °F 10.9 °F 71% 30.08 in 1.5 mi WNW 17.3 mph 21.9 mph 0.00 in Snow Light Snow
3:07 PM 17.6 °F 3.2 °F 10.4 °F 73% 30.03 in 3.0 mi West 15.0 mph 24.2 mph 0.00 in Snow Light Snow
3:29 PM 19.4 °F 6.6 °F 10.4 °F 68% 30.03 in 2.5 mi WNW 12.7 mph - 0.00 in Snow Light Snow
3:53 PM 19.0 °F 5.0 °F 6.1 °F 57% 30.08 in 9.0 mi WNW 15.0 mph - 0.00 in   Mostly Cloudy
4:53 PM 18.0 °F 4.8 °F 9.0 °F 68% 30.10 in 10.0 mi West 12.7 mph - N/A   Scattered Clouds
5:53 PM 17.1 °F 7.6 °F 9.0 °F 71% 30.10 in 10.0 mi West 6.9 mph - 0.00 in   Overcast
6:43 PM 17.6 °F 6.4 °F 10.4 °F 73% 30.07 in 2.5 mi West 9.2 mph - 0.00 in Snow Light Snow
6:53 PM 16.0 °F 4.4 °F 12.0 °F 84% 30.12 in 2.5 mi West 9.2 mph - 0.00 in Snow Light Snow
7:05 PM 15.8 °F 6.1 °F 12.2 °F 86% 30.08 in 3.0 mi West 6.9 mph - N/A Snow Light Snow
7:19 PM 15.8 °F 6.1 °F 12.2 °F 86% 30.08 in 2.5 mi West 6.9 mph - 0.00 in Snow Light Snow
7:36 PM 15.8 °F 6.1 °F 12.2 °F 86% 30.08 in 4.0 mi West 6.9 mph - 0.00 in Snow Light Snow
7:45 PM 15.8 °F 6.1 °F 10.4 °F 79% 30.08 in 2.5 mi West 6.9 mph - 0.00 in Snow Light Snow
7:51 PM 15.8 °F 7.2 °F 10.4 °F 79% 30.08 in 4.0 mi West 5.8 mph - 0.00 in Snow Light Snow
7:53 PM 15.1 °F 5.2 °F 10.9 °F 84% 30.14 in 4.0 mi West 6.9 mph - 0.00 in Snow Light Snow
8:03 PM 15.8 °F 6.1 °F 12.2 °F 86% 30.09 in 2.5 mi WSW 6.9 mph - 0.00 in Snow Light Snow
8:12 PM 15.8 °F 6.1 °F 12.2 °F 86% 30.09 in 1.2 mi West 6.9 mph - 0.00 in Snow Light Snow
8:19 PM 15.8 °F 5.1 °F 12.2 °F 86% 30.09 in 2.0 mi West 8.1 mph - 0.00 in Snow Light Snow
8:27 PM 15.8 °F 6.1 °F 12.2 °F 86% 30.08 in 2.5 mi West 6.9 mph - 0.00 in Snow Light Snow
8:36 PM 15.8 °F 6.1 °F 12.2 °F 86% 30.08 in 3.0 mi WSW 6.9 mph - 0.00 in Snow Light Snow
8:53 PM 16.0 °F 7.4 °F 12.0 °F 84% 30.13 in 7.0 mi WSW 5.8 mph - 0.00 in Snow Light Snow
9:53 PM 15.1 °F 6.4 °F 10.9 °F 84% 30.14 in 10.0 mi WSW 5.8 mph - 0.00 in   Overcast
10:53 PM 15.1 °F 6.4 °F 12.0 °F 88% 30.14 in 10.0 mi WSW 5.8 mph - N/A   Overcast
11:15 PM 15.8 °F 8.6 °F 12.2 °F 86% 30.09 in 10.0 mi Variable 4.6 mph - N/A   Overcast
11:53 PM 16.0 °F 5.3 °F 12.0 °F 84% 30.14 in 10.0 mi North 8.1 mph - N/A   Overcast